{"data":{"norad_id":65553,"intl_designator":"2025-201D","name":"GEESAT-5 04","alt_names":[],"object_type":"PAYLOAD","status":"ACTIVE","operator":null,"country":"PRC","launch_date":"2025-09-08","launch_site_code":"YSLA","launch_vehicle":null,"mission":null,"orbit_class":"UNKNOWN","rcs_meters":null,"size_class":null,"mass_kg":null,"dimensions":null,"purposes":[],"wikipedia_slug":null,"has_3d_model":false,"image_url":null,"decayed_at":null,"tle_current":{"epoch":"2026-09-20T12:00:21.308832Z","epoch_age_seconds":152546,"freshness":"FRESH","line1":"1 65553U 25201D   26263.50024663  .00000614  00000+0  99090-4 0  9990","line2":"2 65553  49.9869 317.6366 0008520 276.2568  83.7400 14.84431495 55942","mean_motion":14.84431495,"eccentricity":0.000852,"inclination_deg":49.9869,"raan_deg":317.6366,"arg_perigee_deg":276.2568,"mean_anomaly_deg":83.74,"bstar":9.909e-5,"rev_number":5594,"period_min":97.0068342561,"perigee_km":609.41240049518,"apogee_km":621.3293379043,"semimajor_km":6993.5078691997,"source":"CELESTRAK","updated_at":"2026-09-21T09:00:15.425012Z"}}}